Вернуться в каталог

COSMOS 2065

АктивенНавигацияLEO
NORAD 20550·PAYLOAD·🇷🇺 Russia

Запущен Apr 6, 1990 с Plesetsk Cosmodrome

Loading…

Ближайшие Пролёты (ближайшие 24 часа)

TLE

СвежийSource: Space-Track

Эпоха: Sep 14, 2026, 04:41 UTC

1 20550U 90029B   26257.19578914  .00000003  00000-0  12806-3 0  9991
2 20550  73.9827 180.3809 0008626 211.5215 300.9891 12.49207338661820

Отслеживайте COSMOS 2065 в реальном времени с AllMySat

Download on the App Store